Location: Добрич
(43.6638°N, 27.9002°E)
Time: 05:24:03
(UTC+03:00)

ISS - Pass Details

Date: 25 April 2026
Orbit: 414 x 424 km, 51.6° (Epoch: 15 May)

Event Time Altitude Azimuth Distance (km) Brightness Sun altitude
Exits shadow 04:12:46 49° 302° (WNW) 546 -3.4 -19.1°
Maximum altitude 04:13:12 54° 333° (NNW) 516 -3.3 -19.0°
Drops below altitude 10° 04:16:31 10° 52° (NE) 1,504 0.3 -18.6°
Sets 04:18:39 0° 57° (ENE) 2,373 1.7 -18.3°
